Regional Weather Roundup
Issued by NWS

Home | Current Version | Previous Version | Text Only | Print | Product List | Glossary Off
Versions: 1 2 3 4 5 6 7 8 9 10 11 12 13 14 15 16 17 18 19 20 21 22 23 24 25 26 27 28 29 30 31 32 33 34 35 36 37 38 39 40 41 42 43 44 45 46 47 48 49 50

000
ASUS43 KMKX 160459
RWRWI

WISCONSIN REGIONAL WEATHER ROUNDUP
NATIONAL WEATHER SERVICE MILWAUKEE/SULLIVAN WI
1100 PM CST FRI DEC 15 2017

NOTE: "FAIR" INDICATES FEW OR NO CLOUDS BELOW 12,000 FEET WITH NO
SIGNIFICANT WEATHER AND/OR OBSTRUCTIONS TO VISIBILITY.

WIZ001-002-006>008-014>016-023>028-160600-
NORTHWEST WISCONSIN

CITY           SKY/WX    TMP DP  RH WIND       PRES   REMARKS
SUPERIOR ARPT  CLOUDY    16  11  78 CALM      29.79S
ASHLAND        CLOUDY    11   6  81 CALM      29.81S
HAYWARD        LGT SNOW  16  10  77 CALM      29.75S
SIREN          LGT SNOW  19  16  88 E3        29.74F
CUMBERLAND     LGT SNOW  18  14  86 SE3       29.73S
RICE LAKE      LGT SNOW  19  17  92 CALM      29.76S
CHETEK         CLOUDY    18  15  91 E5        29.75F WCI  11
LADYSMITH      LGT SNOW  17  13  86 E5        29.77F WCI   9
EAU CLAIRE     LGT SNOW  22  20  92 NE3       29.75F FOG
MENOMONIE      LGT SNOW  23  22  94 E3        29.75S
NEW RICHMOND   LGT SNOW  24  21  89 E6        29.72F WCI  17
OSCEOLA        LGT SNOW  24  24 100 E6        29.75F WCI  17
$$

WIZ003>005-009-010-017-018-160600-
NORTH CENTRAL WISCONSIN

CITY           SKY/WX    TMP DP  RH WIND       PRES   REMARKS
MANITOWISH WTR CLOUDY     6   5  95 CALM      29.75S
ARBOR VITAE    CLOUDY     8   5  87 CALM      29.76R
WOODRUFF       CLOUDY     8   5  87 CALM      29.76R
RHINELANDER    CLOUDY     8   5  87 CALM      29.76R
EAGLE RIVER    CLOUDY     7   3  84 CALM      29.76R
LAND O LAKES   CLOUDY     7   4  87 CALM      29.78R
PHILLIPS       CLOUDY    12   8  84 CALM      29.75R
TOMAHAWK       CLOUDY    10   6  87 CALM      29.77S
MEDFORD        LGT SNOW  15  11  85 CALM      29.75S
MERRILL        CLOUDY    13  10  88 CALM      29.78S
$$

WIZ029-030-035-036-043>047-160600-
CENTRAL WISCONSIN

CITY           SKY/WX    TMP DP  RH WIND       PRES   REMARKS
WAUSAU         LGT SNOW  14  11  87 E5        29.77S FOG     WCI   6
MOSINEE        NOT AVBL
MARSHFIELD     LGT SNOW  18  15  88 E5        29.75S FOG     WCI  11
STEVENS POINT  LGT SNOW  16  13  88 CALM      29.80S
WAUPACA        LGT SNOW  22  14  70 E3        29.83R
WAUTOMA        LGT SNOW  21  17  84 E3        29.82S FOG
WISC RAPIDS    LGT SNOW  20  15  81 E3        29.80S
CAMP DOUGLAS   MOCLDY    27  25  93 E3        29.78S BLWGSNOW
$$

WIZ011>013-019>022-031-037>040-048>050-160600-
NORTHEAST WISCONSIN

CITY           SKY/WX    TMP DP  RH WIND       PRES   REMARKS
ANTIGO         CLOUDY    10   7  89 CALM      29.77S
SHAWANO        CLOUDY    15  11  83 CALM      29.84S
OCONTO         CLOUDY    10   6  84 CALM      29.86R
STURGEON BAY   CLOUDY    18   9  68 NW7       29.86R WCI   9
GREEN BAY      CLOUDY    16   9  74 NE3       29.85S
MANITOWOC      FLURRIES  17  11  77 CALM      29.86R
APPLETON       FLURRIES  19  10  68 CALM      29.81S
CLINTONVILLE   CLOUDY    16   9  73 CALM      29.83S
OSHKOSH        FLURRIES  22  16  78 E5        29.82S WCI  16
$$

WIZ032>034-041-042-053>061-160600-
SOUTHWEST WISCONSIN

CITY           SKY/WX    TMP DP  RH WIND       PRES   REMARKS
LA CROSSE      CLOUDY    31  29  92 SE6       29.76F WCI  25
SPARTA         LGT SNOW  28  28  99 CALM      29.78S
VIROQUA        CLOUDY    30  30 100 CALM      29.75S
BOSCOBEL       CLOUDY    30  27  88 CALM      29.79F
PRAIRIE DU CHI CLOUDY    35  24  62 CALM      29.78F
PLATTEVILLE    PTCLDY    34  26  71 S8        29.80S WCI  27
$$

WIZ056-057-062-063-064-067-068-160600-
SOUTH CENTRAL WISCONSIN

CITY           SKY/WX    TMP DP  RH WIND       PRES   REMARKS
REEDSBURG      CLOUDY    29  29  99 CALM      29.78S
BARABOO/DELLS  MIX PCPN  29  27  92 CALM      29.78S
LONE ROCK      CLOUDY    32  28  85 E3        29.80S
MINERAL POINT  PTCLDY    34  28  80 SW8       29.78S WCI  27
MADISON        CLOUDY    31  25  78 S6        29.81S WCI  25
MIDDLETON      CLOUDY    32  27  80 CALM      29.80F
WATERTOWN      CLOUDY    29  29 100 CALM      29.81F
MONROE         CLOUDY    32  25  74 S12       29.80S WCI  23
JANESVILLE     CLOUDY    36  25  64 SW12      29.81F WCI  27
$$

WIZ051-052-058>065-066-070>072-160600-
SOUTHEAST WISCONSIN

CITY           SKY/WX    TMP DP  RH WIND       PRES   REMARKS
MILWAUKEE      CLOUDY    31  28  89 S3        29.83F
WAUKESHA       LGT SNOW  28  27  93 CALM      29.83S
MILWAUKEE/TIMM LGT SNOW  30  27  86 CALM      29.84S
RACINE         CLOUDY    31  27  85 S3        29.85F
BURLINGTON     CLOUDY    31  27  86 SW7       29.82F WCI  24
KENOSHA        CLOUDY    33  24  69 SW8       29.84F WCI  26
FOND DU LAC    LGT SNOW  24  18  77 NE6       29.82S WCI  17
SHEBOYGAN      FLURRIES  20  16  84 NE3       29.84S
WEST BEND      FLURRIES  25  23  93 CALM      29.83R
JUNEAU         FLURRIES  28  27  95 S3        29.82F
$$

LSZ147-162-160600-
LAKE SUPERIOR

STATION/POSITION TIME  TEMP    WIND        PRES    WAVE
                       AIR SEA DIR/SP/G            HT/PER
                 (UTC) (F)     (DEG/KT/KT) (MB)    (FT/S)
DEVILS ISLAND    0400   19     150/  2/  3 1010.7R
SAXON HARBOR     0430   12                 1009.5S
$$

LMZ867-665-643>646-160600-
LAKE MICHIGAN

STATION/POSITION TIME  TEMP    WIND        PRES    WAVE
                       AIR SEA DIR/SP/G            HT/PER
                 (UTC) (F)     (DEG/KT/KT) (MB)    (FT/S)
NORTHPORT PIER   0440   20     310/  6/ 10 1010.8R
KEWAUNEE LAKESHO 0430   15     310/  2/  2 1010.3R
SHEBOYGAN LAKESH 0400   23     350/  3/  3 1011.6F
PORT WASHINGTON  0440   27     260/  2/  3 1011.5S
MILWAUKEE LAKESH 0430   31     220/  5/  5   N/A
KENOSHA   LAKESH 0400   32     190/  5/  7 1011.2
$$

TC  - TEMPERATURE IN CELSIUS
VSB - VISIBILITY IN STATUTE MILES
WCI - WIND CHILL INDEX
HX  - HEAT INDEX





USA.gov is the U.S. government's official web portal to all federal, state and local government web resources and services.